User: anonymous   Login
Location: Del Amo
(33.8464°N, 118.2104°W)
Time: 17:28:48
(UTC+00:00)
Language:

NOAA 19 - Orbit

View from above orbital plane
View from above orbital plane
View from above satellite
View from above satellite

Ground track
Ground track

The orbit data is extracted from the following two-line orbital elements,

1 33591U 09005A   24281.17568037  .00000870  00000-0  48954-3 0  9997
2 33591  99.0345 338.0992 0013291 340.4108  19.6551 14.13144909807449
Epoch (UTC): 07 October 2024 04:12:58
Eccentricity: 0.0013291
inclination: 99.0345°
perigee height: 839 km
apogee height: 858 km
right ascension of ascending node: 338.0992°
argument of perigee: 340.4108°
revolutions per day: 14.13144909
mean anomaly at epoch: 19.6551°
orbit number at epoch: 80744

The dashed part of the orbit path shows where the satellite is in the earth's shadow,  

DLR